EHI
40 41 39 37 34 27 24 25 26 26 27 24 19 19 22 24 24 21 16 15 13 11 9 7 5 4 3 4 6 8 7 4 3 3 3 3 3 3 2 3 2 1 0
40 40 38 36 34 29 26 27 27 28 29 26 21 20 21 24 25 22 17 14 12 12 12 11 7 4 3 4 6 8 7 6 5 4 3 3 3 3 3 2 2 1 0
39 39 39 38 36 32 30 30 30 31 30 27 24 22 22 23 25 24 19 15 13 14 14 12 8 4 3 4 6 7 7 7 7 6 4 3 3 3 2 1 1 1 1
42 43 44 42 40 38 35 34 34 33 31 29 28 26 24 23 25 25 22 19 18 18 15 11 7 4 3 4 5 6 6 7 7 6 4 3 3 2 1 0 0 0 0
47 47 48 48 45 43 40 38 37 35 34 34 31 27 25 23 23 24 23 22 22 21 17 11 6 4 3 3 4 4 5 6 5 4 3 2 1 1 0 0 0 0 0
52 49 50 52 51 47 44 42 41 40 39 39 34 28 26 23 21 20 21 22 24 23 20 13 6 3 3 3 2 2 2 3 3 2 2 1 0 0 0 0 0 0 0
55 53 54 56 55 52 48 46 45 44 45 42 36 30 26 21 18 16 16 19 22 23 20 13 6 4 4 4 3 1 1 1 1 1 1 1 1 0 0 0 0 0 0
59 57 57 58 59 58 54 52 51 50 49 45 38 32 26 20 14 11 10 14 18 20 17 11 7 5 5 5 3 2 1 0 0 0 1 1 1 0 0 0 0 0 0
60 59 58 58 60 61 58 56 56 55 52 46 39 31 26 19 12 7 7 12 16 17 15 10 7 5 4 3 3 3 2 0 0 0 0 0 0 0 0 0 0 0 0
57 56 56 58 61 61 59 58 57 56 52 46 38 31 27 21 13 6 5 10 15 15 14 11 7 3 1 1 2 4 3 1 0 0 0 0 0 0 0 0 0 0 0
54 54 54 57 59 60 61 60 57 54 50 45 39 34 30 25 15 7 4 8 12 14 14 12 7 3 0 0 1 3 2 1 0 0 0 0 0 0 0 0 0 0 0
54 54 56 56 55 57 61 62 57 52 47 43 40 36 32 26 17 9 5 4 8 12 13 11 7 2 0 0 0 1 1 0 0 0 0 0 0 0 1 1 1 1 0
55 56 56 54 51 53 58 58 53 49 44 39 37 34 32 27 21 13 6 2 3 7 9 7 4 1 0 0 0 0 0 0 0 0 0 0 0 0 1 2 2 1 1
58 57 54 51 48 50 52 50 46 42 39 36 34 32 31 29 25 18 9 4 3 4 5 4 2 0 0 0 0 0 0 0 0 0 0 0 0 0 0 1 1 1 0
57 55 50 47 46 48 47 42 36 31 30 30 29 29 28 25 21 17 12 7 5 4 3 2 2 2 1 1 1 1 0 0 0 0 0 0 0 0 0 0 0 0 0
51 51 48 45 45 46 43 37 28 21 17 17 18 20 20 16 11 9 8 6 5 3 3 3 4 5 5 3 2 2 1 1 0 0 1 1 0 0 0 0 0 0 0
47 47 46 45 45 43 41 37 31 22 15 10 7 7 8 6 3 1 2 2 1 2 4 6 7 8 8 5 4 4 4 3 2 1 1 2 1 1 1 0 0 0 1
45 44 44 45 46 44 41 40 38 33 27 19 9 4 2 1 0 0 0 0 1 3 5 7 8 9 8 7 6 7 8 7 5 3 3 3 3 2 2 1 1 1 2
42 41 41 42 43 41 39 38 39 38 35 28 19 10 4 1 1 1 0 1 4 6 7 8 8 8 8 8 8 8 9 9 8 6 5 5 4 3 3 2 2 3 3
36 33 33 35 35 35 34 35 37 37 35 30 24 16 8 4 3 3 1 2 5 9 10 10 9 9 9 8 9 9 9 9 9 8 7 6 5 4 3 3 3 2 2
26 23 22 25 27 28 28 30 32 33 32 28 25 18 10 7 9 8 5 4 6 10 12 12 10 10 10 10 10 10 10 10 9 9 8 7 6 5 5 3 1 1 1
19 16 14 17 20 21 20 21 24 27 27 24 22 16 10 11 14 14 11 9 9 11 12 11 10 9 10 11 12 12 12 11 11 10 9 8 7 6 5 3 1 0 0
17 14 11 12 14 14 14 15 17 20 22 21 19 15 11 13 16 17 15 14 13 12 12 11 10 9 11 12 13 12 11 11 12 11 10 9 7 5 4 1 0 0 0
14 12 10 9 10 11 11 12 13 15 18 18 17 15 14 15 16 16 15 14 13 12 12 11 10 11 11 11 10 8 7 8 9 10 10 9 7 5 3 1 0 0 0
11 10 9 8 9 9 9 9 10 13 14 15 14 15 16 14 14 13 12 11 11 11 11 10 10 10 10 8 7 5 3 3 4 5 7 8 7 5 3 2 1 0 0
8 9 9 8 8 8 7 7 8 11 12 12 13 14 14 12 11 10 10 10 10 9 8 8 10 9 7 7 6 4 1 0 1 2 4 7 7 5 4 2 1 0 0
Wind_Speed
7 5 5 5 4 3 2 2 2 1 2 1 1 1 1 2 1 1 1 1 1 1 1 2 2 2 2 1 1 1 1 1 3 2 2 3 2 3 3 3 5 4 4
7 6 5 4 4 3 3 2 2 2 2 2 1 1 1 2 1 1 1 1 1 2 2 2 2 2 2 2 1 1 1 2 3 3 3 2 2 3 3 3 4 5 4
8 7 6 5 4 3 2 2 2 2 2 2 2 1 1 1 1 0 0 0 1 2 1 1 1 1 1 2 1 1 1 1 2 3 3 2 2 2 2 2 3 3 4
8 8 6 5 5 4 3 3 3 2 2 2 2 2 1 1 1 0 0 0 1 1 1 1 2 1 2 2 1 1 0 1 2 2 2 2 2 2 2 2 1 2 2
8 7 7 6 5 5 4 3 3 3 3 3 2 2 1 2 1 0 1 1 1 1 1 1 2 4 5 3 2 1 1 0 1 1 2 2 2 2 2 2 2 2 2
6 6 6 7 6 5 5 4 4 3 2 3 2 2 1 1 2 3 1 1 0 1 1 0 2 4 3 3 3 3 2 1 1 0 1 2 2 2 1 2 1 1 1
6 6 6 6 6 6 6 6 5 4 3 3 3 2 2 2 2 2 0 1 1 1 1 0 1 2 3 2 1 1 2 2 1 1 0 1 1 2 2 2 2 2 2
6 6 5 6 6 6 5 5 5 4 4 3 3 3 3 3 2 2 1 3 2 2 2 1 1 1 1 0 2 1 1 1 2 2 1 1 1 1 2 3 3 2 2
7 6 6 6 5 5 5 5 4 4 4 4 3 4 3 3 3 3 2 3 2 2 2 2 2 2 1 1 2 2 1 1 0 1 2 2 3 3 2 1 2 2 2
7 6 5 5 5 5 5 5 4 4 4 4 4 4 4 4 5 4 3 3 2 2 3 3 3 2 3 3 3 2 3 2 1 1 2 3 3 4 5 3 2 2 2
6 6 5 4 4 4 4 4 4 4 4 4 4 4 4 5 6 7 6 3 3 3 2 2 3 5 5 5 4 3 3 2 2 3 3 3 3 3 4 4 4 3 3
5 6 5 5 5 5 4 4 4 4 5 5 4 4 4 5 6 7 8 7 4 3 2 2 2 6 6 5 4 4 4 3 3 3 3 3 3 3 3 4 5 4 4
5 5 5 5 4 4 5 5 5 5 5 5 5 5 4 4 5 7 9 8 7 4 2 1 2 5 5 5 6 6 5 4 4 3 4 3 3 3 3 3 4 4 5
5 5 5 5 5 4 4 5 5 5 5 4 4 4 4 3 3 4 5 5 6 4 3 2 4 6 5 4 4 5 5 4 4 4 3 3 3 3 3 3 4 4 4
4 4 5 6 6 4 4 3 4 3 3 4 3 3 3 4 4 5 5 4 4 4 3 3 3 3 4 4 4 4 4 4 5 4 4 3 3 3 3 3 3 3 4
4 4 5 5 5 5 5 4 3 4 6 6 5 4 3 4 5 7 6 5 5 5 4 4 5 5 5 5 5 5 5 5 5 5 4 4 4 3 3 2 3 3 3
4 4 4 5 5 6 6 5 5 3 4 5 6 6 5 5 5 7 7 5 5 6 5 5 5 5 5 5 5 5 5 4 4 4 5 4 4 3 3 3 3 3 3
5 4 4 4 4 5 5 5 5 5 5 4 5 7 7 6 7 7 6 4 3 5 6 6 5 5 5 5 4 4 4 3 3 3 3 3 3 3 3 3 3 4 3
4 3 3 4 4 4 4 5 5 5 4 4 4 4 7 6 6 6 7 5 6 6 6 5 5 5 5 4 3 3 3 3 3 3 3 3 3 3 4 4 4 5 4
3 4 4 3 4 4 4 4 4 4 4 4 4 3 4 4 4 5 6 6 5 5 5 5 4 5 4 3 3 3 4 3 3 3 3 3 4 3 4 5 4 3 3
4 3 4 4 4 4 3 3 3 4 3 3 3 4 6 5 5 5 5 6 5 5 5 5 4 4 4 3 3 4 4 3 3 3 3 3 3 3 3 3 3 3 3
3 3 4 4 3 3 3 3 3 3 3 3 2 3 7 5 5 4 4 5 5 4 4 4 4 4 4 3 3 3 4 4 3 3 3 3 3 3 3 3 2 2 2
4 4 4 3 3 3 4 3 3 3 3 3 3 2 3 4 4 3 4 4 4 4 3 3 4 3 3 2 3 3 3 3 3 3 3 3 3 3 3 2 3 3 3
4 4 4 3 3 3 3 3 3 3 3 3 2 2 2 2 3 3 3 3 3 3 3 3 3 4 4 3 3 2 2 2 2 2 3 3 3 3 2 3 3 3 2
4 4 4 4 3 3 3 3 3 3 2 2 2 2 2 1 1 1 1 1 1 2 3 3 2 3 3 4 3 2 1 1 1 1 2 3 3 2 2 3 2 2 2
4 4 3 3 3 3 2 2 3 3 2 2 2 1 1 1 1 1 1 1 2 2 3 3 3 3 3 2 1 1 2 2 1 0 2 2 2 2 2 2 3 3 3
Wind_Direction
167 164 154 162 167 169 164 133 115 104 99 89 90 90 100 100 98 68 14 99 70 43 34 53 31 24 12 20 42 71 67 104 127 128 126 131 127 117 139 152 151 148 147
163 160 162 161 165 175 171 153 145 141 137 126 125 120 136 117 113 108 331 62 75 61 49 43 19 22 17 12 12 51 67 107 131 140 142 144 145 142 159 186 167 159 155
166 165 164 166 170 176 173 160 157 155 155 147 145 143 131 108 112 116 310 29 71 76 73 64 36 26 10 13 14 43 42 101 124 146 152 147 152 157 158 199 158 151 161
166 168 167 172 173 173 180 172 171 174 172 169 155 162 169 159 149 187 226 197 94 88 91 85 62 37 25 349 5 41 25 111 142 156 152 152 147 160 168 196 168 184 176
164 171 172 172 172 172 176 180 181 186 190 168 162 169 192 185 188 165 268 203 139 109 93 98 97 81 65 39 27 9 14 44 164 174 165 148 153 159 194 210 201 189 183
163 173 171 172 174 177 177 180 181 187 181 157 172 179 194 176 87 85 19 305 154 161 141 108 137 126 105 86 63 51 49 78 44 359 169 169 169 170 190 217 210 182 212
169 175 169 172 177 180 186 180 182 182 176 173 177 173 157 133 125 107 82 275 237 220 167 225 273 134 154 156 155 128 80 84 129 205 237 230 179 171 196 226 218 213 225
169 174 173 177 182 180 183 181 178 176 179 179 180 182 175 169 167 158 217 239 241 204 182 211 254 130 209 174 213 203 202 213 235 222 220 232 172 178 218 226 228 221 218
174 180 181 182 182 181 186 181 178 180 183 189 186 185 187 168 178 181 200 240 236 221 198 201 210 176 180 209 232 236 230 223 228 148 167 180 176 186 199 248 239 226 236
179 182 183 183 183 185 185 179 180 185 192 195 193 189 190 179 184 188 197 233 237 230 204 184 189 188 182 203 230 230 240 248 241 194 196 215 212 212 210 212 237 245 253
172 173 176 181 183 178 175 181 182 187 196 197 199 195 193 191 184 193 197 222 248 244 230 204 188 178 186 213 240 237 237 246 246 234 220 211 213 213 210 213 219 226 242
166 172 175 181 196 189 177 186 189 192 198 201 209 213 204 194 188 198 205 218 251 258 249 241 186 185 199 216 232 240 237 241 249 242 232 225 216 212 209 213 216 223 230
172 170 171 181 191 186 187 196 199 199 210 208 208 213 210 192 183 192 203 219 240 253 277 256 187 199 210 222 227 231 226 235 246 245 243 234 220 213 208 207 216 218 231
173 171 177 182 192 194 199 202 205 204 211 212 212 217 205 191 183 181 194 210 224 235 261 248 200 204 219 231 226 224 226 236 239 248 251 241 223 211 210 209 216 213 226
177 182 190 197 197 195 204 218 213 206 204 215 221 218 212 210 202 184 188 200 210 211 212 217 217 213 221 225 226 224 221 226 238 245 249 252 244 235 225 212 213 227 232
185 194 206 204 195 200 202 206 215 217 194 193 199 206 207 198 184 181 188 198 210 194 198 221 226 228 231 232 231 227 220 222 232 237 238 238 237 236 234 227 216 228 241
199 206 218 215 206 210 210 206 209 215 220 212 209 209 211 199 191 190 195 203 206 185 209 231 231 230 236 240 236 234 233 227 226 233 237 238 236 235 232 232 230 233 238
213 215 223 226 225 219 216 214 215 214 209 212 211 209 208 204 198 192 181 166 205 205 224 233 237 235 238 243 242 241 242 236 231 238 243 249 245 244 244 237 229 234 239
224 230 229 243 243 231 221 223 225 222 221 212 195 186 200 201 197 192 182 210 225 227 231 234 239 240 238 236 235 233 238 243 240 237 240 248 252 252 252 250 240 235 237
228 240 239 248 255 248 241 238 235 225 222 220 209 181 159 175 195 195 204 217 229 235 236 237 243 248 244 244 238 237 243 240 237 240 245 247 252 256 260 258 251 243 235
234 228 237 245 253 263 260 253 248 243 240 239 213 179 179 200 212 211 212 219 227 231 233 237 239 245 242 236 241 248 254 253 242 247 253 254 255 259 263 263 259 257 257
243 234 229 236 248 265 270 264 255 249 244 243 239 196 185 205 217 217 221 223 226 231 234 236 248 254 255 246 247 254 257 257 251 251 259 261 262 266 268 270 269 263 248
250 241 236 232 237 242 250 254 255 251 251 250 242 218 195 216 222 222 229 228 227 229 232 232 241 254 260 263 257 248 252 262 261 253 257 263 265 264 263 265 265 262 261
261 257 255 250 244 243 244 247 252 257 260 264 269 257 232 227 235 238 240 238 237 227 225 228 230 248 257 253 259 256 243 253 264 249 245 254 262 265 267 264 261 260 258
270 267 264 261 256 259 261 262 267 265 268 271 271 268 257 248 251 265 268 257 276 276 266 251 226 228 247 255 257 257 241 223 226 277 257 247 257 265 277 283 283 282 276
274 278 277 272 267 268 270 277 281 277 267 266 264 253 244 244 239 245 261 255 259 270 276 269 262 248 225 238 259 147 143 135 126 305 286 274 267 268 287 283 284 278 272